Regional Weather Roundup
Issued by NWS

Home | Current Version | Previous Version | Graphics & Text | Print | Product List | Glossary On
Versions: 1 2 3 4 5 6 7 8 9 10 11 12 13 14 15 16 17 18 19 20 21 22 23 24 25 26 27 28 29 30 31 32 33 34 35 36 37 38 39 40 41 42 43 44 45 46 47 48 49 50
000
ASUS45 KSLC 211910
RWRUT

UTAH REGIONAL WEATHER ROUNDUP
NATIONAL WEATHER SERVICE SALT LAKE CITY UT
100 PM MDT MON JUL 21 2014

UTZ001>011-023>025-212000-

NORTHERN UTAH

CITY           SKY/WX    TMP DP  RH WIND       PRES   REMARKS
HILL AFB       SUNNY     87  40  18 SW8       30.13F
LOGAN          NOT AVBL
OGDEN          SUNNY     89  37  16 W13       30.10F
PROVO AIRPORT  SUNNY     90  48  24 S10       30.15F
SALT LAKE CITY MOSUNNY   91  37  15 S20G30    30.07F
VERNAL         SUNNY     87  32  14 SW9       30.17F
WENDOVER       SUNNY     88  41  19 NE3       30.08S
HEBER CITY     SUNNY     86  36  16 SW12G20   30.21S
WEST JORDAN    SUNNY     91  50  24 SE13G20   30.12F

$$

UTZ012>022-026-027-212000-

SOUTHERN UTAH

CITY           SKY/WX    TMP DP  RH WIND       PRES   REMARKS
BRYCE CANYON   SUNNY     79  23  12 SW21G26   30.40F
CEDAR CITY     SUNNY     85  28  12 SW13G24   30.24F
MILFORD        SUNNY     87  35  15 SW15G26   30.17F
MOAB/CYNLANDS  SUNNY     93  29  10 S8        30.11F
PRICE          SUNNY     85  28  12 VRB3      30.23F
ST GEORGE      CLEAR     93  41  16 W7        30.08S

$$

REGIONAL REPORTS     COLORADO/ARIZONA

CITY           SKY/WX    TMP DP  RH WIND       PRES   REMARKS
CRAIG, CO      MOSUNNY   88  38  17 SW12G20   30.23F
GRAND JUNCTION MOSUNNY   90  39  16 NW5       30.16F
RIFLE          MOSUNNY   87  39  18 NW8       30.21F
MONTROSE       MOSUNNY   88  36  15 MISG      30.25F
CORTEZ         SUNNY     87  32  14 VRB5      30.29S
PAGE, AZ       SUNNY     93  33  12 NE10      30.16F
GRAND CANYON   SUNNY     81  33  17 SW12      30.37S
KINGMAN        SUNNY     94  31  10 SW21      30.13F
FLAGSTAFF      SUNNY     78  37  22 SW10G18   30.40F

$$

REGIONAL REPORTS    NEVADA/IDAHO/WYOMING

CITY           SKY/WX    TMP DP  RH WIND       PRES   REMARKS
LAS VEGAS, NV  MOSUNNY   97  43  15 SE12G20   29.97F HX  93
ELY            SUNNY     82  33  17 SW12G22   30.23F
ELKO           SUNNY     79  47  32 SW13      30.17S
POCATELLO, ID  MOSUNNY   83  50  31 W13       30.09F
BURLEY         SUNNY     81  51  35 N8        30.06F
EVANSTON, WY   SUNNY     78  40  25 SW13G20   30.30S
ROCK SPRINGS   SUNNY     83  30  14 W14G29    30.25F

$$


USA.gov is the U.S. government's official web portal to all federal, state and local government web resources and services.